Weather History for Philadelphia, PA

Change the Weather History Date:

Monday, February 3, 2014

  Actual Average Record
Temperature  
Mean Temperature 38 °F 34 °F  
Max Temperature 45 °F 41 °F 62 °F (1991)
Min Temperature 31 °F 26 °F 4 °F (1881)
Degree Days  
Heating Degree Days 27 31  
Month to date heating degree days 77 94  
Since 1 July heating degree days 2821 2757  
Cooling Degree Days 0 0  
Month to date cooling degree days 0 0  
Year to date cooling degree days 0 0  
Moisture  
Dew Point 30 °F    
Average Humidity 77    
Maximum Humidity 89    
Minimum Humidity 65    
Precipitation  
Precipitation 1.15 in 0.09 in 1.64 in (1939)
Month to date precipitation 1.15 0.29  
Year to date precipitation 4.70 3.32  
Snow  
Snow 3.50 in 0.40 in 8.00 in (1886)
Month to date snowfall 3.5 1.1  
Since 1 July snowfall 40.6 11.3  
Snow Depth 0.00 in    
Sea Level Pressure  
Sea Level Pressure 30.14 in    
Wind  
Wind Speed 11 mph (NNE)    
Max Wind Speed 20 mph    
Max Gust Speed 23 mph    
Visibility 5 miles    
Events Fog , Rain , Snow    
T = Trace of Precipitation, MM = Missing Value Source: NWS Daily Summary

Daily Weather History Graph

Daily Weather History Graph

Search for Another Location

Airport:

Trip Planner

Search our weather history database for the weather conditions in past years. The results will help you decide how hot, cold, wet, or windy it might be!

Date:

Astronomy

Feb. 03, 2014 Rise Set
Actual Time 7:07 AM EST 5:22 PM EST
Civil Twilight 6:38 AM EST 5:51 PM EST
Nautical Twilight 6:06 AM EST 6:23 PM EST
Astronomical Twilight 5:34 AM EST 6:55 PM EST
Moon 9:08 AM EST (2/3) 10:10 PM EST (2/3)
Length of Visible Light 11h 12m
Length of Day
10h 15m
Waxing Crescent, 19% of the Moon is Illuminated
Feb 3
Waxing Crescent
Feb 6
First Quarter
Feb 14
Full
Feb 22
Last Quarter
Mar 1
New

Hourly Weather History & Observations

Time (EST) Temp. Windchill Dew Point Humidity Pressure Visibility Wind Dir Wind Speed Gust Speed Precip Events Conditions
12:54 AM 44.1 °F 39.5 °F 34.0 °F 68% 30.10 in 10.0 mi NE 8.1 mph - N/A   Overcast
1:34 AM 42.8 °F 38.0 °F 33.8 °F 70% 30.09 in 8.0 mi NNE 8.1 mph - 0.00 in Rain Light Rain
1:54 AM 43.0 °F 37.7 °F 35.1 °F 74% 30.09 in 8.0 mi NNE 9.2 mph - 0.00 in Rain Light Rain
2:54 AM 41.0 °F 37.1 °F 34.0 °F 76% 30.12 in 7.0 mi NNE 5.8 mph - 0.03 in Rain Rain
3:01 AM 39.2 °F 35.0 °F 35.6 °F 87% 30.12 in 6.0 mi NNE 5.8 mph - 0.00 in Rain Rain
3:54 AM 39.0 °F 33.4 °F 33.1 °F 79% 30.14 in 5.0 mi NNE 8.1 mph - 0.07 in Rain Light Rain
4:54 AM 37.9 °F 29.6 °F 32.0 °F 79% 30.11 in 5.0 mi NE 13.8 mph - 0.05 in Rain Light Rain
5:54 AM 37.0 °F 29.8 °F 33.1 °F 86% 30.11 in 5.0 mi NNE 10.4 mph - 0.07 in Rain Light Rain
5:58 AM 37.4 °F 30.8 °F 33.8 °F 87% 30.11 in 5.0 mi NNE 9.2 mph - 0.01 in Rain Rain
6:03 AM 37.4 °F 32.1 °F 33.8 °F 87% 30.13 in 5.0 mi NNE 6.9 mph - 0.02 in Rain Rain
6:15 AM 37.4 °F 28.5 °F 33.8 °F 87% 30.11 in 4.0 mi NNE 15.0 mph - 0.05 in Rain Rain
6:31 AM 37.4 °F 28.5 °F 32.0 °F 81% 30.10 in 5.0 mi NE 15.0 mph - 0.09 in Rain Rain
6:54 AM 36.0 °F 26.7 °F 30.9 °F 82% 30.11 in 5.0 mi NNE 15.0 mph - 0.13 in Rain Light Rain
7:33 AM 35.6 °F 28.0 °F 30.2 °F 81% 30.11 in 4.0 mi NE 10.4 mph - 0.07 in Rain , Snow Light Rain
7:54 AM 34.0 °F 26.0 °F 30.9 °F 89% 30.11 in 3.0 mi NE 10.4 mph - 0.11 in Rain , Snow Light Rain
7:57 AM 33.8 °F 25.3 °F 30.2 °F 87% 30.11 in 2.5 mi NE 11.5 mph 18.4 mph 0.00 in Snow Light Snow
8:06 AM 33.8 °F 26.4 °F 30.2 °F 87% 30.11 in 1.8 mi NE 9.2 mph - 0.04 in Snow Light Snow
8:47 AM 33.8 °F 25.8 °F 30.2 °F 87% 30.13 in 0.8 mi NE 10.4 mph - 0.12 in Snow Light Snow
8:50 AM 33.8 °F 25.3 °F 30.2 °F 87% 30.12 in 0.8 mi NE 11.5 mph - 0.13 in Snow Light Snow
8:54 AM 33.1 °F 24.9 °F 30.0 °F 89% 30.12 in 0.8 mi NE 10.4 mph - 0.13 in Snow Light Snow
9:01 AM 33.8 °F 25.3 °F 30.2 °F 87% 30.13 in 0.5 mi NE 11.5 mph - 0.02 in Fog , Snow Snow
9:38 AM 33.8 °F 23.2 °F 30.2 °F 87% 30.10 in 0.5 mi NE 17.3 mph 23.0 mph 0.11 in Fog , Snow Snow
9:50 AM 33.8 °F 25.3 °F 30.2 °F 87% 30.12 in 0.8 mi NNE 11.5 mph - 0.14 in Snow Light Snow
9:54 AM 33.1 °F 22.6 °F 30.0 °F 89% 30.11 in 1.2 mi NNE 16.1 mph - 0.16 in Snow Light Snow
10:08 AM 33.8 °F 23.2 °F 30.2 °F 87% 30.11 in 0.8 mi NNE 17.3 mph - 0.03 in Snow Light Snow
10:23 AM 33.8 °F 25.8 °F 30.2 °F 87% 30.10 in 0.5 mi NNE 10.4 mph - 0.07 in Fog , Snow Snow
10:54 AM 33.1 °F 23.9 °F 30.0 °F 89% 30.09 in 0.5 mi NE 12.7 mph - 0.15 in Fog , Snow Snow
11:00 AM 33.8 °F 25.3 °F 30.2 °F 87% 30.09 in 0.5 mi NNE 11.5 mph - 0.02 in Fog , Snow Snow
11:29 AM 33.8 °F 25.3 °F 30.2 °F 87% 30.08 in 0.8 mi NNE 11.5 mph - 0.07 in Snow Light Snow
11:35 AM 33.8 °F 24.3 °F 30.2 °F 87% 30.07 in 1.0 mi NE 13.8 mph - 0.09 in Snow Light Snow
11:54 AM 33.1 °F 24.9 °F 30.0 °F 89% 30.09 in 1.0 mi North 10.4 mph - 0.12 in Snow Light Snow
12:20 PM 33.8 °F 25.8 °F 30.2 °F 87% 30.06 in 2.0 mi NNE 10.4 mph - 0.04 in Snow Light Snow
12:31 PM 33.8 °F 23.9 °F 30.2 °F 87% 30.07 in 1.5 mi NNE 15.0 mph 20.7 mph 0.05 in Snow Light Snow
12:43 PM 33.8 °F 23.9 °F 30.2 °F 87% 30.06 in 0.8 mi North 15.0 mph - 0.06 in Snow Light Snow
12:54 PM 33.1 °F 22.6 °F 30.0 °F 89% 30.09 in 0.8 mi North 16.1 mph - 0.07 in Snow Light Snow
1:15 PM 33.8 °F 23.9 °F 30.2 °F 87% 30.07 in 0.5 mi North 15.0 mph - 0.03 in Fog , Snow Snow
1:27 PM 33.8 °F 24.3 °F 30.2 °F 87% 30.08 in 0.8 mi North 13.8 mph - 0.04 in Snow Light Snow
1:32 PM 33.8 °F 23.9 °F 30.2 °F 87% 30.08 in 1.5 mi North 15.0 mph - 0.05 in Snow Light Snow
1:43 PM 33.8 °F 23.5 °F 30.2 °F 87% 30.08 in 2.0 mi NNE 16.1 mph - 0.05 in Snow Light Snow
1:54 PM 34.0 °F 24.6 °F 30.0 °F 85% 30.09 in 2.0 mi North 13.8 mph - 0.05 in Snow Light Snow
2:19 PM 33.8 °F 24.3 °F 30.2 °F 87% 30.10 in 3.0 mi North 13.8 mph - 0.00 in Snow Light Snow
2:40 PM 33.8 °F 24.8 °F 30.2 °F 87% 30.10 in 2.5 mi North 12.7 mph - 0.00 in Snow Light Snow
2:54 PM 34.0 °F 25.5 °F 30.0 °F 85% 30.10 in 2.0 mi North 11.5 mph - 0.01 in Snow Light Snow
3:18 PM 33.8 °F 24.3 °F 30.2 °F 87% 30.12 in 3.0 mi North 13.8 mph - 0.00 in Snow Light Snow
3:30 PM 33.8 °F 25.8 °F 30.2 °F 87% 30.13 in 5.0 mi North 10.4 mph - 0.00 in Snow Light Snow
3:50 PM 33.8 °F 24.3 °F 30.2 °F 87% 30.13 in 5.0 mi North 13.8 mph - 0.00 in Snow Light Snow
3:54 PM 34.0 °F 24.6 °F 30.0 °F 85% 30.13 in 6.0 mi North 13.8 mph - 0.00 in Snow Light Snow
3:59 PM 33.8 °F 24.8 °F 28.4 °F 81% 30.14 in 2.5 mi North 12.7 mph - 0.00 in Snow Light Snow
4:11 PM 33.8 °F 24.3 °F 28.4 °F 81% 30.15 in 3.0 mi North 13.8 mph - 0.00 in Snow Light Snow
4:22 PM 33.8 °F 25.8 °F 28.4 °F 81% 30.15 in 7.0 mi North 10.4 mph - 0.00 in Snow Light Snow
4:26 PM 33.8 °F 24.3 °F 28.4 °F 81% 30.15 in 10.0 mi North 13.8 mph - 0.00 in   Overcast
4:54 PM 34.0 °F 24.6 °F 28.9 °F 82% 30.17 in 10.0 mi North 13.8 mph - 0.00 in   Overcast
5:15 PM 33.8 °F 25.3 °F 28.4 °F 81% 30.18 in 10.0 mi North 11.5 mph - N/A   Overcast
5:54 PM 34.0 °F 25.0 °F 28.0 °F 79% 30.21 in 10.0 mi North 12.7 mph - N/A   Overcast
6:54 PM 34.0 °F 28.0 °F 28.0 °F 79% 30.24 in 10.0 mi North 6.9 mph - N/A   Overcast
7:54 PM 34.0 °F 27.2 °F 28.0 °F 79% 30.26 in 10.0 mi North 8.1 mph - N/A   Overcast
8:54 PM 34.0 °F 28.0 °F 26.1 °F 73% 30.27 in 10.0 mi North 6.9 mph - N/A   Overcast
9:30 PM 33.8 °F 27.7 °F 26.6 °F 75% 30.30 in 10.0 mi Variable 6.9 mph - N/A   Overcast
9:54 PM 34.0 °F 28.0 °F 26.1 °F 73% 30.31 in 10.0 mi North 6.9 mph - N/A   Overcast
10:46 PM 33.8 °F 27.0 °F 24.8 °F 70% 30.33 in 10.0 mi North 8.1 mph - N/A   Mostly Cloudy
10:54 PM 32.0 °F 24.2 °F 25.0 °F 75% 30.33 in 10.0 mi North 9.2 mph - N/A   Mostly Cloudy
11:01 PM 32.0 °F 26.4 °F 24.8 °F 75% 30.34 in 10.0 mi North 5.8 mph - N/A   Mostly Cloudy
11:54 PM 30.9 °F 23.5 °F 21.9 °F 69% 30.34 in 10.0 mi North 8.1 mph - N/A   Scattered Clouds